Probability
3 0 0 0 0 0 0 0 0 0 3 3 0 0 0 0 0 0 0 0 0 0 0 0 0 0 0 0 3 6 6 6 10 10 16 16 16 19
3 0 0 0 0 0 0 0 0 0 0 0 0 0 0 0 0 0 0 0 0 0 0 0 0 0 0 0 0 0 0 3 3 6 10 3 6 10
3 3 3 0 0 0 0 0 0 0 0 3 3 0 0 0 0 0 0 0 0 0 0 0 0 0 0 0 0 0 0 0 0 0 3 3 3 6
6 6 6 6 0 0 0 0 0 0 0 3 3 3 0 0 0 0 0 0 0 0 0 0 0 0 0 0 0 0 0 0 0 0 0 0 3 3
6 6 6 6 6 3 3 3 0 0 0 3 3 0 3 3 0 0 0 0 0 0 0 0 0 0 0 0 0 0 0 0 0 0 0 0 0 0
6 6 6 6 6 3 3 3 3 3 0 3 3 0 0 3 3 0 0 0 0 0 0 0 0 0 0 0 0 0 0 0 0 0 0 0 0 0
10 6 6 6 3 3 3 3 3 3 3 3 3 0 0 0 0 0 0 0 0 0 0 0 0 0 0 0 0 0 0 0 0 0 0 0 0 0
10 6 6 6 0 0 0 0 0 3 3 3 6 0 0 0 0 0 3 0 0 0 0 0 0 0 0 0 0 0 0 0 0 0 0 0 0 0
6 6 10 6 3 0 0 0 0 0 0 0 6 6 3 0 0 0 0 6 3 6 0 0 3 0 3 0 0 0 0 0 0 0 0 0 0 0
0 0 3 3 3 3 0 0 0 0 0 0 0 0 0 0 0 0 0 0 3 0 3 0 3 3 0 3 0 0 0 0 0 0 0 0 0 0
0 0 0 0 3 0 0 0 0 0 0 0 0 0 0 0 0 0 0 0 0 6 0 0 3 3 3 3 3 0 0 0 0 0 0 0 0 0
0 0 0 0 0 0 0 3 0 3 0 0 0 0 0 0 0 0 0 0 0 0 3 0 0 3 3 3 3 3 0 0 0 0 0 0 0 0
0 0 0 0 0 0 0 0 0 0 0 0 0 0 0 0 0 0 0 0 0 0 0 0 0 3 3 3 3 3 3 3 0 0 0 0 0 0
0 3 3 0 0 0 0 0 0 0 0 0 0 0 3 3 3 0 0 0 0 0 0 0 0 0 0 0 0 3 3 3 3 3 3 0 0 0
0 0 0 0 0 0 0 0 0 0 0 0 0 0 0 0 3 0 0 0 0 0 0 0 0 0 0 0 0 0 3 3 3 0 3 3 3 0
0 0 0 0 0 0 0 0 0 0 0 0 0 0 0 0 0 0 0 0 3 3 3 0 3 3 0 0 0 0 3 3 3 3 3 6 3 3
0 0 0 0 0 0 0 0 0 0 0 0 0 0 0 0 0 0 0 0 0 0 3 6 3 3 0 0 0 0 0 0 3 3 3 3 3 6
0 0 0 0 0 0 0 0 0 0 0 0 0 0 0 0 0 0 0 0 0 0 0 0 0 0 0 3 0 3 3 0 0 3 0 0 0 6
0 0 3 0 0 0 0 0 0 0 0 0 0 0 0 0 0 0 0 0 0 3 3 0 0 0 0 0 0 0 0 0 0 0 0 0 0 0
0 0 3 3 3 0 0 0 0 0 0 0 0 0 0 0 0 0 0 0 3 3 0 0 0 0 0 0 0 0 0 0 0 0 0 3 0 0
0 0 0 0 3 3 3 3 3 0 0 0 0 0 0 0 0 0 3 0 0 0 0 0 0 0 0 0 0 0 0 0 0 0 3 3 3 0
0 0 0 0 0 3 3 3 3 3 3 3 0 0 0 0 3 3 3 3 3 3 0 0 0 0 0 0 0 0 0 0 0 0 0 0 3 0
0 0 0 3 0 0 0 3 3 3 3 3 3 3 3 3 0 0 3 3 3 3 3 0 0 0 0 0 0 0 0 0 0 0 0 0 0 0
Height
5858 5857 5855 5854 5852 5851 5849 5848 5848 5846 5845 5844 5842 5841 5840 5839 5839 5838 5837 5836 5836 5835 5835 5834 5834 5834 5834 5834 5833 5833 5832 5832 5831 5831 5831 5831 5831 5831
5854 5853 5851 5850 5848 5847 5845 5844 5843 5842 5841 5839 5837 5836 5835 5834 5833 5832 5832 5831 5830 5829 5829 5828 5828 5828 5828 5828 5827 5826 5826 5826 5825 5825 5825 5825 5825 5825
5851 5849 5847 5846 5844 5842 5840 5839 5837 5836 5835 5834 5832 5831 5830 5829 5827 5826 5825 5824 5824 5823 5823 5822 5822 5822 5822 5821 5821 5820 5820 5819 5819 5819 5819 5819 5819 5819
5846 5844 5842 5840 5838 5837 5835 5834 5832 5830 5829 5828 5826 5825 5824 5823 5822 5820 5819 5818 5818 5817 5816 5816 5816 5815 5815 5815 5814 5814 5813 5813 5812 5812 5812 5813 5813 5813
5841 5839 5837 5835 5833 5831 5829 5828 5826 5825 5823 5822 5821 5819 5818 5817 5815 5814 5813 5812 5811 5811 5810 5810 5809 5809 5809 5808 5808 5807 5807 5806 5806 5806 5806 5806 5806 5807
5836 5834 5832 5830 5828 5825 5824 5822 5820 5819 5817 5816 5815 5813 5812 5810 5809 5808 5807 5806 5805 5804 5804 5803 5803 5802 5802 5801 5801 5800 5800 5799 5799 5799 5799 5799 5800 5800
5830 5828 5826 5824 5821 5819 5817 5816 5814 5812 5811 5809 5808 5807 5805 5804 5803 5801 5800 5799 5798 5797 5797 5796 5796 5795 5794 5794 5793 5793 5792 5792 5792 5792 5792 5792 5793 5794
5824 5821 5819 5817 5815 5813 5811 5809 5807 5806 5804 5803 5802 5800 5799 5797 5796 5795 5793 5792 5792 5791 5790 5789 5789 5788 5787 5786 5786 5785 5785 5785 5785 5785 5785 5785 5786 5787
5817 5815 5812 5810 5808 5806 5804 5802 5800 5799 5798 5796 5795 5794 5792 5791 5789 5788 5787 5786 5784 5783 5782 5782 5781 5780 5779 5779 5778 5778 5777 5777 5777 5777 5778 5778 5779 5780
5809 5807 5805 5803 5801 5799 5797 5795 5794 5792 5791 5789 5788 5787 5785 5783 5782 5781 5779 5778 5777 5775 5774 5774 5773 5773 5772 5772 5771 5770 5770 5770 5770 5770 5771 5771 5772 5773
5802 5799 5797 5795 5793 5791 5789 5788 5786 5785 5783 5782 5780 5779 5778 5776 5775 5773 5772 5770 5769 5768 5766 5766 5766 5765 5765 5765 5764 5763 5763 5763 5763 5763 5763 5764 5765 5766
5793 5791 5788 5786 5784 5782 5781 5779 5778 5777 5775 5774 5772 5771 5770 5768 5767 5766 5764 5762 5761 5760 5759 5758 5758 5758 5758 5758 5757 5756 5756 5756 5756 5756 5757 5757 5758 5759
5785 5782 5780 5778 5776 5774 5772 5771 5769 5768 5767 5766 5764 5763 5762 5760 5759 5757 5756 5755 5754 5753 5752 5751 5751 5750 5750 5751 5750 5749 5749 5749 5749 5749 5750 5750 5751 5752
5776 5773 5772 5769 5768 5766 5764 5763 5761 5760 5758 5757 5756 5755 5754 5752 5751 5749 5748 5747 5746 5745 5745 5744 5744 5743 5743 5743 5743 5743 5742 5742 5742 5743 5743 5744 5744 5745
5766 5764 5762 5760 5758 5757 5755 5754 5752 5751 5749 5748 5747 5746 5745 5744 5742 5741 5739 5739 5738 5737 5737 5736 5736 5736 5736 5736 5736 5736 5736 5735 5735 5736 5736 5737 5738 5738
5757 5755 5753 5751 5749 5748 5746 5745 5743 5742 5740 5739 5738 5737 5735 5735 5734 5732 5732 5731 5730 5730 5729 5728 5728 5728 5728 5728 5728 5728 5728 5728 5728 5728 5729 5730 5730 5731
5749 5747 5745 5743 5741 5739 5737 5735 5734 5732 5731 5730 5728 5727 5726 5726 5725 5724 5723 5723 5722 5722 5722 5721 5720 5720 5720 5720 5720 5720 5720 5720 5720 5721 5721 5722 5723 5723
5740 5738 5736 5734 5732 5730 5728 5726 5724 5722 5721 5720 5719 5718 5717 5716 5716 5715 5715 5714 5714 5714 5713 5713 5713 5712 5712 5712 5713 5713 5712 5712 5712 5713 5713 5714 5715 5716
5731 5729 5727 5725 5723 5721 5719 5717 5715 5713 5712 5711 5709 5708 5708 5707 5707 5706 5706 5706 5706 5706 5705 5705 5705 5704 5704 5705 5705 5705 5704 5704 5704 5705 5706 5707 5708 5708
5722 5720 5718 5715 5713 5711 5710 5708 5707 5705 5703 5702 5701 5700 5699 5698 5698 5698 5697 5698 5698 5698 5697 5697 5697 5697 5696 5697 5697 5697 5696 5696 5696 5697 5698 5698 5699 5700
5714 5712 5709 5707 5705 5703 5701 5700 5698 5697 5696 5694 5693 5692 5691 5690 5690 5689 5689 5690 5690 5690 5690 5690 5689 5689 5688 5688 5689 5689 5689 5688 5688 5689 5690 5691 5691 5692
5706 5703 5701 5699 5697 5695 5693 5691 5690 5689 5687 5686 5685 5684 5683 5683 5682 5682 5682 5682 5682 5682 5682 5682 5681 5681 5681 5681 5681 5681 5681 5681 5680 5681 5681 5683 5683 5684
5697 5695 5693 5691 5689 5687 5685 5683 5682 5681 5680 5678 5677 5677 5676 5675 5675 5675 5675 5675 5674 5674 5674 5674 5673 5673 5673 5673 5673 5673 5673 5673 5673 5673 5674 5674 5675 5676
Wind_Speed
16 16 16 17 17 17 17 18 18 18 18 19 19 19 20 20 21 22 21 21 20 21 21 22 22 22 21 21 21 21 21 21 21 21 22 21 21 21
17 18 18 19 19 20 20 20 19 19 19 20 20 20 21 21 22 23 22 21 21 21 21 21 21 22 22 22 21 21 21 21 21 22 22 22 22 22
19 19 20 21 21 21 21 20 21 21 21 21 21 21 21 22 23 23 22 22 21 21 21 21 21 22 22 22 22 22 22 22 22 22 22 22 22 22
20 21 21 22 21 21 21 21 22 22 22 22 22 22 22 23 23 24 23 23 21 22 22 22 21 22 22 22 22 22 22 22 22 22 22 22 22 22
21 21 21 22 22 22 22 22 23 23 23 23 23 23 23 24 24 24 24 23 22 22 21 22 22 22 22 23 23 23 23 23 23 23 23 23 22 22
22 22 22 23 23 24 24 23 24 24 24 23 23 23 23 23 23 24 24 25 23 22 22 22 23 23 23 23 24 24 23 23 23 23 23 23 23 23
24 24 24 24 24 24 24 24 24 24 24 24 24 24 24 24 24 24 24 24 24 23 23 24 24 24 24 24 24 24 24 24 24 24 24 24 24 24
26 26 26 26 25 25 24 25 25 26 25 24 24 25 25 25 26 25 25 25 25 24 24 24 25 25 24 24 24 24 24 24 25 25 25 25 25 25
27 28 28 28 27 26 26 26 26 26 25 25 25 25 25 25 25 26 26 26 26 26 25 24 25 25 25 24 24 24 24 24 24 25 25 24 25 25
28 29 28 28 28 27 28 27 26 26 25 25 25 25 25 25 26 26 27 27 27 26 26 24 24 24 24 23 23 23 24 24 24 24 24 23 23 24
29 29 30 29 29 28 28 27 27 26 26 26 26 26 25 26 26 27 27 28 27 27 26 25 24 24 24 23 23 23 23 24 24 24 23 23 23 23
30 29 29 29 28 27 28 28 27 27 27 27 27 26 26 27 27 27 27 27 25 25 25 25 24 24 23 23 23 23 23 23 22 22 22 22 22 23
29 29 29 29 28 28 27 27 27 27 27 27 27 27 27 27 27 28 27 26 25 25 25 25 25 25 24 23 23 23 23 23 22 22 22 22 22 22
29 29 30 30 29 28 28 28 28 28 27 27 27 27 27 27 27 27 27 26 25 25 26 26 26 26 25 24 24 24 23 23 23 23 22 22 22 23
30 30 30 29 28 28 28 27 28 28 28 28 28 28 27 27 28 27 26 26 25 25 26 26 26 26 25 25 26 25 25 24 24 24 23 23 23 23
29 29 29 29 29 29 28 28 28 28 27 28 28 28 28 28 27 26 26 25 25 25 26 26 25 25 25 25 26 25 26 25 25 25 25 25 24 24
28 29 29 30 29 29 29 29 29 29 28 28 29 28 27 27 27 27 26 26 26 25 25 25 25 25 25 26 26 26 26 26 26 25 25 25 24 24
29 29 29 29 28 28 29 29 29 28 28 28 29 28 28 27 27 27 26 26 26 25 24 24 25 25 25 26 26 25 26 26 26 26 25 25 25 25
29 29 28 28 28 28 28 28 27 27 27 27 27 27 27 26 26 26 26 26 25 25 24 23 24 25 25 25 25 25 25 25 26 26 25 25 25 25
29 28 28 28 28 27 27 26 26 25 26 25 25 25 25 25 25 25 25 25 24 24 24 24 24 24 24 24 24 24 25 24 24 25 24 24 24 24
28 28 28 27 27 27 26 26 25 25 25 24 23 23 23 24 23 23 23 24 24 24 24 24 24 24 24 24 23 23 24 24 23 23 23 23 23 24
27 27 27 27 26 26 26 25 25 25 24 24 23 23 23 23 22 22 23 23 23 24 24 24 24 24 24 23 23 23 23 23 23 23 24 24 24 24
27 27 27 26 25 25 25 25 25 25 24 24 24 24 23 23 22 22 23 23 24 23 24 24 24 24 24 23 23 23 22 22 22 23 24 24 24 24
Wind_Direction
299 299 296 295 294 292 290 290 290 288 287 285 284 281 280 279 277 279 279 279 278 275 271 268 268 270 272 274 274 272 271 270 269 268 265 263 264 264
296 296 297 297 294 291 290 290 289 288 287 288 286 284 282 280 278 279 278 277 275 273 271 269 268 270 272 274 275 274 272 270 269 269 267 265 265 266
298 296 296 295 294 292 292 291 289 288 286 286 286 287 285 282 280 279 278 276 274 273 272 270 269 270 272 274 275 274 272 270 270 269 267 266 265 265
299 297 296 295 293 292 291 290 290 288 286 285 285 287 286 284 281 280 279 276 276 275 273 271 271 271 272 272 272 273 273 271 270 269 267 267 265 263
299 298 297 296 294 292 291 290 289 288 286 285 286 287 286 285 282 281 280 277 277 275 274 273 272 273 274 273 272 273 273 272 270 269 267 266 264 263
297 297 297 296 295 292 291 291 290 289 288 287 286 286 286 287 285 283 282 277 275 273 273 273 274 274 275 275 274 272 271 271 269 268 266 264 263 262
295 295 296 295 294 293 292 291 290 289 289 288 285 284 285 285 284 284 283 281 278 274 273 272 274 274 276 275 275 271 268 268 267 266 265 263 262 261
292 293 292 292 292 291 291 291 289 289 289 287 285 283 283 283 281 280 282 282 279 276 275 274 274 275 275 273 273 271 269 267 266 266 264 263 262 260
291 291 292 293 293 291 291 292 291 290 288 286 285 285 285 284 281 281 281 281 279 278 276 275 275 276 274 273 272 271 268 268 265 264 263 262 261 259
292 294 293 294 293 292 291 292 292 289 286 285 285 285 285 284 283 282 282 281 281 280 277 275 274 274 274 274 275 274 270 269 267 262 261 261 261 259
291 292 292 291 292 292 291 290 289 287 285 285 287 285 283 283 283 283 282 282 280 279 277 274 274 273 272 273 274 275 273 272 267 264 262 260 260 258
291 293 292 291 291 292 291 289 287 287 285 284 284 284 284 283 282 283 284 282 279 278 277 275 273 272 270 271 273 274 273 272 268 264 263 261 260 257
291 292 292 290 290 290 289 290 289 286 284 284 284 284 284 284 284 284 283 282 279 277 275 274 273 271 269 268 271 272 272 270 269 267 265 264 261 260
293 292 291 289 288 288 288 288 288 287 284 283 283 284 284 283 285 285 281 279 278 276 275 274 272 269 267 267 268 269 271 271 269 268 266 264 264 261
293 291 290 289 287 288 288 287 287 286 284 282 282 283 282 282 284 283 282 280 276 276 276 276 273 269 268 268 269 268 269 270 269 267 268 267 266 264
293 292 290 290 289 288 287 287 287 286 285 283 283 283 281 279 280 280 279 278 275 276 279 277 273 270 270 272 270 268 267 268 268 268 267 266 265 264
294 292 291 290 290 290 288 288 287 286 286 285 283 282 281 280 278 277 278 278 275 275 277 276 273 273 273 273 273 269 268 269 267 266 265 264 263 262
294 294 293 291 290 289 289 289 288 287 285 284 283 281 280 279 278 277 276 275 275 275 275 275 273 274 275 274 274 272 269 267 267 265 264 264 263 262
293 294 293 292 292 291 291 290 289 286 284 284 283 281 280 279 278 277 275 274 274 273 273 274 275 276 275 273 273 274 272 270 268 266 265 263 263 263
295 294 293 292 292 292 290 289 288 287 286 287 286 283 282 282 279 277 274 272 273 274 274 275 274 275 276 274 273 274 274 273 271 267 265 263 263 264
295 295 294 293 293 292 291 288 287 288 287 286 285 285 284 283 281 278 275 273 274 274 275 275 275 274 275 275 275 274 274 274 272 268 265 264 263 265
296 295 295 294 293 292 290 288 287 288 287 286 285 284 283 282 280 278 277 276 275 274 275 276 275 275 275 274 274 274 274 274 272 268 268 267 266 266
295 295 294 294 292 291 290 289 289 287 287 286 286 284 281 281 279 276 275 276 276 275 276 276 275 275 275 274 273 273 274 273 273 272 270 269 268 267